Regional Weather Roundup
Issued by NWS

Home | Current Version | Previous Version | Text Only | Print | Product List | Glossary Off
Versions: 1 2 3 4 5 6 7 8 9 10 11 12 13 14 15 16 17 18 19 20 21 22 23 24 25 26 27 28 29 30 31 32 33 34 35 36 37 38 39 40 41 42 43 44 45 46 47 48 49 50

000
ASUS43 KOAX 022002
RWRNE

WEATHER ROUNDUP FOR NEBRASKA
NATIONAL WEATHER SERVICE OMAHA NE
300 PM CDT WED SEP 02 2015

NOTES: SATELLITE DATA IS BEING USED TO AUGMENT CLOUD COVER ABOVE
       12000 FEET.
       "FAIR" INDICATES FEW OR NO CLOUDS BELOW 12,000 FEET WITH NO
       SIGNIFICANT WEATHER AND/OR OBSTRUCTIONS TO VISIBILITY.

  * THESE STATIONS DO NOT REPORT WEATHER SUCH AS RAIN...SNOW OR FOG.

NEZ001>004-019>022-054>056-022100-
NEBRASKA PANHANDLE

CITY           SKY/WX    TMP DP  RH WIND       PRES   REMARKS
SCOTTSBLUFF    SUNNY     92  45  19 VRB3      29.94F
ALLIANCE       SUNNY     94  42  16 VRB7      29.92F HX  90
CHADRON        SUNNY     97  44  16 CALM      29.85F HX  93
KIMBALL        SUNNY     88  38  17 CALM      30.00F
SIDNEY         SUNNY     94  43  17 S9        29.98F HX  90
$$

NEZ057>060-069>072-079>082-022100-
SOUTHWEST NEBRASKA

CITY           SKY/WX    TMP DP  RH WIND       PRES   REMARKS
NORTH PLATTE   SUNNY     97  52  21 S9        29.86F HX  94
IMPERIAL       MOSUNNY   97  50  20 S12       29.90F HX  94
LEXINGTON      SUNNY     94  65  38 SE14      29.87F HX  96
MC COOK        MOSUNNY   99  53  21 SE13      29.86F HX  96
OGALLALA       MOSUNNY   93  50  22 S3        29.91F HX  90
$$

NEZ005>010-023>029-035>040-094-022100-
NORTH CENTRAL NEBRASKA

CITY           SKY/WX    TMP DP  RH WIND       PRES   REMARKS
VALENTINE      SUNNY    100  45  15 S12       29.82F HX  96
AINSWORTH      SUNNY     99  52  20 S12       29.83F HX  96
BROKEN BOW     SUNNY     97  59  28 SE12G20   29.86S HX  96
O`NEILL        SUNNY     95  66  37 S14       29.83S HX  98
ORD            SUNNY     97  59  28 SE13      29.83F HX  96
THEDFORD       SUNNY     98  49  18 S10       29.87F HX  95
$$

NEZ041-046>049-061>064-073>077-083>087-022100-
SOUTH CENTRAL NEBRASKA

CITY           SKY/WX    TMP DP  RH WIND       PRES   REMARKS
GRAND ISLAND   SUNNY     94  63  35 S16       29.86F HX  95
AURORA         SUNNY     91  65  41 S13       29.87F HX  93
HASTINGS       SUNNY     94  63  35 S12       29.87F HX  95
HEBRON         SUNNY     92  60  33 S14       29.87F HX  92
HOLDREGE       SUNNY     92  59  32 S10       29.88F HX  92
KEARNEY *      SUNNY     93  64  38 S13       29.86F HX  95
YORK           SUNNY     90  68  48 S12G17    29.88F HX  93
$$

NEZ011>018-030>034-042>045-022100-
NORTHEAST NEBRASKA

CITY           SKY/WX    TMP DP  RH WIND       PRES   REMARKS
NORFOLK        SUNNY     88  71  57 S15       29.85F HX  94
ALBION         SUNNY     87  69  55 SE12      29.86F HX  91
BLAIR          FAIR      85  70  61 S14G23    29.88F
COLUMBUS *     SUNNY     88  68  51 S10       29.85F HX  91
FREMONT        SUNNY     87  69  54 S10G18    29.88S HX  91
TEKAMAH        SUNNY     87  73  62 S16       29.86F HX  94
$$

NEZ050>053-065>068-078-088>093-022100-
SOUTHEAST NEBRASKA

CITY           SKY/WX    TMP DP  RH WIND       PRES   REMARKS
LINCOLN        SUNNY     92  69  47 S15G23    29.86F HX  97
OMAHA EPPLEY   MOSUNNY   88  69  53 S20       29.87F HX  92
BEATRICE       SUNNY     89  68  49 S15G23    29.88F HX  93
FALLS CITY     SUNNY     89  69  51 S18G28    29.90F HX  93
NEBRASKA CITY  SUNNY     88  65  45 S18       29.90F HX  90
PLATTSMOUTH    SUNNY     86  68  54 S14       29.89F
$$

NEZ044-045-051>053-067-022100-
OMAHA AREA

CITY           SKY/WX    TMP DP  RH WIND       PRES   REMARKS
EPPLEY FIELD   MOSUNNY   88  69  53 S20       29.87F HX  92
BLAIR          SUNNY     85  70  61 S14G23    29.88F
FREMONT        SUNNY     87  69  54 S10G18    29.88S HX  91
MILLARD        SUNNY     87  71  59 S14G23    29.88F HX  93
OFFUTT AFB     SUNNY     88  70  54 S16G24    29.87F HX  93
PLATTSMOUTH    SUNNY     86  68  54 S14       29.89F
WAHOO          FAIR      88  71  56 S15G23    29.87F HX  93
$$



USA.gov is the U.S. government's official web portal to all federal, state and local government web resources and services.